[[{"header":{"parameterUnit":"m.s-1","parameterCategory":1,"la1":30.2991,"la2":30.254,"lo1":-89.0895,"lo2":-89.0444,"dy":0.0017,"dx":0.0017,"nx":28,"ny":28,"refTime":"2023-09-24T09:00:00:Z","depth":0,"parameterNumber":2,"parameterNumberName":"U-component_of_WINDS"},"data":[0,0,0,0,0,0,0,0,0,0,0,0,0,0,0,0,0,0,0,0,0,0,0,0,0,0,0,0,0,0,0,0,0,0,0,0,0,0,0,0,0,0,0,0,0,0,0,0,0,0,0,0,0,0,0,0,0,0,1.7992,1.7993,0,1.8063,1.8064,1.8065,1.8028,1.8026,1.8024,1.8022,1.8095,1.8099,1.8103,0,0,0,0,0,0,0,0,0,0,0,0,0,1.7824,1.7827,1.7992,1.7993,1.7994,1.8063,1.8064,1.8065,1.8028,1.8026,1.8023,1.8021,1.8094,1.8098,1.8103,0,0,0,0,0,0,0,0,0,0,0,0,0,1.7896,1.7829,1.7992,1.7984,1.7984,1.8063,1.8064,1.8065,1.8028,1.8026,1.8023,1.802,1.8093,1.8098,1.8103,1.8195,0,0,1.8121,1.8123,0,0,0,0,0,0,0,0,1.7892,1.7903,1.7984,1.7985,1.7985,1.8034,1.8032,1.8109,1.8029,1.8012,1.8022,1.8019,1.8077,1.8084,1.8103,1.8198,1.8202,1.8121,1.8124,1.8127,1.8128,0,0,0,0,0,0,0,1.7887,1.7899,1.802,1.7985,1.7986,1.7976,1.7983,1.8046,1.8059,1.8013,1.801,1.8019,1.8077,1.8098,1.8105,1.8203,1.8121,1.8126,1.8129,1.8131,1.8373,1.8376,0,0,0,0,0,0,1.7883,1.7895,1.8018,1.8023,1.7931,1.7982,1.799,1.8021,1.8059,1.8062,1.8022,1.8017,1.809,1.8098,1.8107,1.8214,1.8127,1.8132,1.8135,1.837,1.8374,1.8377,0,0,0,0,0,0,1.7879,1.7894,1.8015,1.7958,1.7973,1.7988,1.8023,1.8024,1.8045,1.8065,1.8067,1.8041,1.8088,1.8099,1.8173,1.8216,1.8135,1.814,1.8366,1.8371,1.8375,1.843,0,0,0,0,0,0,1.7875,1.7893,1.7928,1.7959,1.7976,1.808,1.8026,1.8027,1.8055,1.805,1.8084,1.8087,1.8087,1.8164,1.8178,1.8222,1.8144,1.8362,1.8368,1.8374,1.8424,1.8436,1.8445,0,0,0,0,0,1.7869,1.7942,1.793,1.7945,1.802,1.8082,1.8092,1.809,1.8058,1.8093,1.8106,1.8086,1.821,1.8172,1.8187,1.8234,1.836,1.8367,1.8373,1.8419,1.8433,1.8445,0,0,0,0,0,0,1.7916,1.7946,1.7933,1.8019,1.8048,1.8076,1.812,1.8106,1.8145,1.8139,1.8135,1.8143,1.8218,1.8234,1.8192,1.8323,1.828,1.829,1.8309,1.8323,1.8333,1.8327,1.8149,0,0,0,0,0,1.7937,1.7984,1.8008,1.8081,1.8096,1.8106,1.8133,1.8128,1.8159,1.8171,1.819,1.822,1.8265,1.8296,1.8339,1.8427,1.8432,1.8466,1.8477,1.8486,1.8494,1.8538,1.8552,1.84,1.8399,1.8399,0,0,1.7979,1.8001,1.8032,1.8091,1.8113,1.8162,1.8117,1.8171,1.8206,1.818,1.8249,1.8264,1.8297,1.8377,1.8414,1.8393,1.8537,1.8494,1.8501,1.8504,1.8547,1.8561,1.8574,1.8404,1.8403,1.8403,0,0,1.808,1.8103,1.8165,1.8188,1.8222,1.8228,1.8242,1.8272,1.828,1.835,1.833,1.8373,1.8452,1.8476,1.8498,1.8607,1.8589,1.8622,1.8676,1.872,1.8732,1.8742,1.8778,1.8791,1.863,1.863,1.863,0,1.8129,1.8201,1.8198,1.8253,1.8279,1.8256,1.8317,1.834,1.8387,1.8405,1.8381,1.8478,1.8499,1.8583,1.8609,1.863,1.8645,1.8616,1.8731,1.8741,1.8751,1.8785,1.8799,1.8634,1.8633,1.8633,1.8633,0,1.8257,1.8308,1.8354,1.8398,1.8429,1.8487,1.8492,1.8524,1.8517,1.8525,1.8594,1.8619,1.8665,1.8686,1.8681,1.8768,1.8754,1.8731,1.8687,1.8769,1.88,1.8814,1.8639,1.8637,1.8636,1.8636,0,0,1.839,1.843,1.8447,1.8465,1.8501,1.854,1.8596,1.8641,1.8667,1.87,1.8746,1.8813,1.879,1.8816,1.8813,1.8852,1.8932,1.8823,1.8824,1.884,1.9027,1.9042,1.9057,1.8921,1.8924,1.8926,1.9023,0,1.8491,1.8589,1.8587,1.8677,1.8722,1.8701,1.875,1.8777,1.8786,1.8825,1.8835,1.8881,1.8851,1.8865,1.8903,1.8914,1.8969,1.8908,1.8962,1.8964,1.8951,1.9074,1.9091,1.9181,1.9036,1.9038,1.9039,0,1.8622,1.8657,1.8752,1.8778,1.8797,1.8841,1.888,1.8919,1.8948,1.8952,1.8979,1.897,1.9026,1.8982,1.9058,1.9017,1.9039,1.9048,1.9051,1.9054,1.9004,1.9077,1.921,1.9222,1.9059,1.9058,1.9056,0,1.8704,1.8776,1.8841,1.8858,1.8892,1.8922,1.8938,1.8964,1.899,1.9025,1.9041,1.9083,1.9105,1.9137,1.9138,1.9107,1.9214,1.9171,1.9217,1.9217,1.9238,1.9236,1.9373,1.9258,1.9258,1.9258,1.9257,0,1.8815,1.8873,1.8878,1.8918,1.8981,1.8979,1.9042,1.9055,1.9078,1.9119,1.9105,1.9144,1.9144,1.9184,1.9186,1.9246,1.9258,1.9261,1.926,1.926,1.9259,1.9273,1.9265,1.9261,1.926,1.926,1.9259,0,1.8917,1.8924,1.8992,1.9018,1.9025,1.9071,1.9092,1.9129,1.9137,1.9189,1.9201,1.9213,1.9258,1.9263,1.9317,1.9318,1.939,1.9384,1.938,1.9378,1.9421,1.9416,1.9569,1.9588,1.9464,1.9465,1.9466,0,1.8986,1.903,1.906,1.9085,1.9102,1.9145,1.9171,1.917,1.9198,1.9233,1.9266,1.931,1.9344,1.9418,1.9431,1.9471,1.9464,1.9515,1.947,1.9468,1.9461,1.9457,1.946,1.9523,1.9524,1.9525,1.9526,0,1.9107,1.9107,1.9145,1.9184,1.9215,1.9245,1.9274,1.9296,1.9299,1.933,1.9376,1.9403,1.9457,1.9499,1.9539,1.9554,1.954,1.9541,1.9553,1.9552,1.9546,1.9546,1.94,1.9536,1.9535,1.9535,1.9534,1.9534,1.9192,1.9229,1.9254,1.9296,1.9318,1.9344,1.9379,1.9391,1.9429,1.9471,1.9469,1.9519,1.9545,1.9596,1.9614,1.9653,1.9636,1.9654,1.9658,1.9662,1.9664,1.9542,1.9661,1.966,1.966,1.966,1.966,0,1.9309,1.9324,1.9363,1.9402,1.9435,1.9419,1.945,1.9478,1.9521,1.9547,1.9581,1.9632,1.9674,1.969,1.973,1.9757,1.9751,1.9767,1.9764,1.9767,1.9679,1.9663,1.9771,1.9771,1.9771,1.9771,1.9771,1.9771,1.9373,1.9433,1.9436,1.9506,1.9521,1.9569,1.9587,1.9611,1.9631,1.9688,1.9722,1.9732,1.9754,1.9795,1.9831,1.9835,1.9849,1.9867,1.9867,1.9785,1.9773,1.9763,1.9747,1.9871,1.9871,1.9951,1.9952,1.9953]},{"header":{"parameterUnit":"m.s-1","parameterCategory":1,"la1":30.2991,"la2":30.254,"lo1":-89.0895,"lo2":-89.0444,"dy":0.0017,"dx":0.0017,"nx":28,"ny":28,"refTime":"2023-09-24T09:00:00:Z","depth":0,"parameterNumber":3,"parameterNumberName":"V-component_of_WINDS"},"data":[0,0,0,0,0,0,0,0,0,0,0,0,0,0,0,0,0,0,0,0,0,0,0,0,0,0,0,0,0,0,0,0,0,0,0,0,0,0,0,0,0,0,0,0,0,0,0,0,0,0,0,0,0,0,0,0,0,0,0.7252,0.7252,0,0.7245,0.7245,0.7245,0.7227,0.7226,0.7226,0.7226,0.7219,0.7219,0.722,0,0,0,0,0,0,0,0,0,0,0,0,0,0.7249,0.7249,0.7252,0.7252,0.7252,0.7245,0.7245,0.7245,0.7227,0.7226,0.7226,0.7225,0.7219,0.7219,0.722,0,0,0,0,0,0,0,0,0,0,0,0,0,0.7247,0.7249,0.7252,0.7242,0.7241,0.7245,0.7245,0.7245,0.7227,0.7226,0.7226,0.7225,0.7219,0.7219,0.722,0.7233,0,0,0.7221,0.7221,0,0,0,0,0,0,0,0,0.7247,0.7247,0.7244,0.7243,0.7242,0.7236,0.7242,0.7241,0.7227,0.7232,0.7226,0.7225,0.7225,0.7225,0.7225,0.7233,0.7233,0.7221,0.7221,0.7221,0.7221,0,0,0,0,0,0,0,0.7248,0.7248,0.7249,0.7244,0.7242,0.7238,0.7237,0.7242,0.7232,0.7232,0.723,0.723,0.7225,0.7225,0.7225,0.7233,0.7221,0.7221,0.7221,0.7221,0.7249,0.725,0,0,0,0,0,0,0.7249,0.7248,0.725,0.7249,0.7243,0.7238,0.7237,0.7239,0.7232,0.7231,0.723,0.7229,0.7225,0.7225,0.7225,0.7239,0.7221,0.7221,0.7221,0.7249,0.7249,0.725,0,0,0,0,0,0,0.7249,0.725,0.725,0.7248,0.7248,0.7239,0.7241,0.7239,0.7239,0.7231,0.7229,0.7232,0.7224,0.7224,0.7231,0.7238,0.7221,0.7222,0.7248,0.7249,0.725,0.7268,0,0,0,0,0,0,0.7249,0.725,0.7255,0.7248,0.7248,0.7257,0.7241,0.7239,0.7239,0.7238,0.7232,0.7231,0.7224,0.723,0.7231,0.7238,0.7222,0.7247,0.7248,0.7249,0.7267,0.727,0.7272,0,0,0,0,0,0.7249,0.7261,0.7255,0.7256,0.7254,0.7257,0.7257,0.7248,0.724,0.7245,0.724,0.7231,0.7237,0.7231,0.7232,0.7239,0.7247,0.7248,0.7249,0.7266,0.7269,0.7272,0,0,0,0,0,0,0.727,0.726,0.7254,0.7264,0.7261,0.7254,0.726,0.7252,0.7252,0.725,0.724,0.7239,0.7246,0.7244,0.7237,0.7251,0.7241,0.7242,0.7253,0.7256,0.7258,0.7259,0.7222,0,0,0,0,0,0.7275,0.7278,0.727,0.7279,0.7278,0.7269,0.727,0.7264,0.7261,0.726,0.7255,0.7252,0.7253,0.7255,0.7255,0.7266,0.7264,0.7272,0.7274,0.7276,0.7278,0.7281,0.7284,0.7254,0.7254,0.7254,0,0,0.7287,0.7282,0.7285,0.7283,0.7281,0.7283,0.7269,0.7273,0.7274,0.726,0.7266,0.7262,0.7258,0.7267,0.727,0.7265,0.7285,0.7278,0.728,0.728,0.7283,0.7286,0.7288,0.7255,0.7255,0.7255,0,0,0.731,0.7307,0.7314,0.7311,0.7307,0.73,0.7302,0.7295,0.7292,0.7297,0.7286,0.7288,0.7291,0.7288,0.7287,0.7307,0.7298,0.7307,0.732,0.7324,0.7327,0.7329,0.7334,0.7337,0.7309,0.7309,0.7309,0,0.7326,0.7329,0.7319,0.7323,0.7322,0.7308,0.7315,0.7313,0.7309,0.7308,0.7302,0.7304,0.7301,0.7307,0.7312,0.7312,0.7313,0.7308,0.7327,0.7329,0.7331,0.7336,0.7338,0.731,0.731,0.7309,0.7309,0,0.7348,0.735,0.7356,0.7352,0.7352,0.7357,0.7347,0.7348,0.7341,0.7335,0.734,0.7335,0.7334,0.7335,0.7329,0.734,0.7337,0.7329,0.7318,0.7335,0.734,0.7342,0.7311,0.7311,0.731,0.731,0,0,0.7384,0.7373,0.7375,0.7372,0.7365,0.7367,0.7371,0.7369,0.737,0.7367,0.737,0.7372,0.7364,0.7362,0.7355,0.7359,0.7373,0.735,0.735,0.7354,0.7384,0.7389,0.7392,0.7367,0.7368,0.7368,0.7384,0,0.7405,0.7411,0.7401,0.7409,0.7411,0.7397,0.74,0.7396,0.7391,0.7391,0.7384,0.7385,0.7375,0.7374,0.7377,0.7371,0.7379,0.7369,0.7369,0.7369,0.737,0.7395,0.7401,0.7416,0.7386,0.7386,0.7386,0,0.743,0.7427,0.7436,0.7427,0.7427,0.743,0.7427,0.7427,0.7422,0.7417,0.7415,0.7406,0.7409,0.7398,0.7401,0.7395,0.7394,0.739,0.7391,0.739,0.7378,0.7394,0.7421,0.7423,0.7389,0.7389,0.7389,0,0.7454,0.7453,0.7457,0.7455,0.7445,0.7448,0.7444,0.7438,0.7436,0.7433,0.7432,0.743,0.7429,0.7427,0.7417,0.741,0.742,0.7409,0.7416,0.7416,0.7419,0.7419,0.7445,0.7419,0.7419,0.7419,0.7419,0,0.7478,0.7483,0.7468,0.7471,0.7476,0.7464,0.7469,0.7464,0.7458,0.7459,0.7447,0.7448,0.7435,0.7435,0.7427,0.743,0.743,0.7426,0.7424,0.7426,0.7427,0.7425,0.7424,0.742,0.742,0.742,0.742,0,0.7506,0.7496,0.75,0.7489,0.7487,0.7491,0.7482,0.7483,0.7476,0.7477,0.7477,0.7466,0.7464,0.7454,0.7451,0.7446,0.7451,0.7447,0.7453,0.7451,0.7458,0.7457,0.7484,0.7487,0.746,0.746,0.746,0,0.7522,0.7525,0.7515,0.7514,0.751,0.751,0.7508,0.7496,0.7495,0.7488,0.749,0.7488,0.7485,0.7483,0.7474,0.7471,0.7467,0.7476,0.7466,0.7468,0.7466,0.7465,0.7465,0.7479,0.7479,0.7479,0.7479,0,0.755,0.7544,0.7542,0.7538,0.7536,0.7533,0.7528,0.7528,0.7515,0.7514,0.7512,0.751,0.7505,0.7503,0.7498,0.7493,0.7484,0.7483,0.7484,0.7487,0.7489,0.7487,0.7458,0.7482,0.7482,0.7482,0.7481,0.7481,0.7572,0.7573,0.7566,0.7563,0.7558,0.7554,0.7555,0.7547,0.7545,0.754,0.7533,0.7532,0.7525,0.7517,0.7513,0.7511,0.7506,0.7508,0.7508,0.7509,0.751,0.749,0.751,0.751,0.751,0.751,0.751,0,0.7598,0.7592,0.759,0.7584,0.7581,0.7572,0.7566,0.7565,0.7564,0.7558,0.7555,0.7552,0.7549,0.7539,0.7535,0.7535,0.7531,0.7534,0.7534,0.7533,0.7515,0.7514,0.7538,0.7538,0.7538,0.7538,0.7538,0.7538,0.7612,0.7614,0.7607,0.7606,0.76,0.7598,0.7595,0.7591,0.7586,0.7583,0.758,0.7573,0.7566,0.756,0.7556,0.7554,0.7552,0.7557,0.7553,0.7537,0.7534,0.7532,0.753,0.7557,0.7557,0.757,0.757,0.757]}]]